953  
ASUS41 KALY 201310  
RWRALY  
 
NEW YORK STATE HOURLY WEATHER ROUNDUP  
NATIONAL WEATHER SERVICE ALBANY NY  
900 AM EDT SAT JUL 20 2024  
 
NOTE: "FAIR" INDICATES FEW OR NO CLOUDS BELOW 12,000 FEET WITH NO  
SIGNIFICANT WEATHER AND/OR NO S TO VISIBILITY
.  
 
NYZ032-033-038>043-046>054-057>066-NYZ062>081-082-084-201400-  
EAST  
 
 
CITY SKY/WX TMP DP RH WIND PRES REMARKS
 
ALBANY PTSUNNY 70 58 65 SE5 30.12S  
GLENS FALLS MOSUNNY 66 60 81 S5 30.11F  
POUGHKEEPSIE MOSUNNY 71 60 68 W3 30.11F  
NEWBURGH PTSUNNY 70 61 73 CALM 30.13S  
MONTGOMERY PTSUNNY 68 61 78 CALM 30.12F  
WHITE PLAINS MOSUNNY 75 63 66 CALM 30.12F  
ISLIP PTSUNNY 76 64 66 SW5 30.12F  
NEW YORK CITY PTSUNNY 78 60 53 NE7 30.11S  
CENTRAL PARK MOSUNNY 77 61 57 VRB3 30.15S  

 
 
NYZ005>009-017-018-044>046-055-056-201400-  
CENTRAL  
 
 
CITY SKY/WX TMP DP RH WIND PRES REMARKS
 
FULTON SUNNY 68 62 81 S3 30.11S  
SYRACUSE MOSUNNY 71 59 65 CALM 30.12S  
ROME MOSUNNY 67 59 75 S3 30.12F  
ELMIRA MOSUNNY 64 58 80 CALM 30.13S  
BINGHAMTON PTSUNNY 66 59 78 S3 30.14S  

 
 
NYZ026>034-041>043-087-201400-  
NORTH  
 
 
CITY SKY/WX TMP DP RH WIND PRES REMARKS
 
WATERTOWN SUNNY 70 62 76 SW8 30.09S  
FORT DRUM SUNNY 71 58 64 SW10 30.07R  
OGDENSBURG SUNNY 72 63 73 SW10 30.05S  
MASSENA SUNNY 69 61 75 SW10G23 30.06S  
SARANAC LAKE SUNNY 65 55 70 SW7 30.11F  
PLATTSBURGH SUNNY 72 57 59 VRB5 30.06F  

 
 
NYZ001>004-010>016-019>021-085-201400-  
WEST  
 
 
CITY SKY/WX TMP DP RH WIND PRES REMARKS
 
NIAGARA FALLS SUNNY 72 58 61 W8 30.11S  
BUFFALO MOSUNNY 68 57 68 VRB3 30.12F  
DUNKIRK SUNNY 72 58 61 MISG 30.13S  
JAMESTOWN SUNNY 63 57 81 CALM 30.16S  
WELLSVILLE MOSUNNY 66 54 65 CALM 30.17S  
ROCHESTER SUNNY 67 58 72 SW7 30.13S  
PENN YAN MOSUNNY 66 59 78 S7 30.14S  

 
 
KEY  
WCI = WIND CHILL INDEX  
VSB = VISIBILITY  
HX = HEAT INDEX  

 
 
 
CLICK HERE TO GO TO PREVIOUS BULLETINS.

The Nexlab NY Page
The Nexlab VT Page
The Nexlab MA Page
The Nexlab CT Page Main Text Page